Probability
3 3 3 3 3 2 1 1 1 2 2 1 0 0 0 0 0 0 0 0 0 0 0 0 0 1 0 0 0 0 0 0 0 0 0 0 0 0 0 0 0 0 0
3 3 3 3 3 1 0 0 0 1 1 0 0 0 0 0 0 0 0 0 0 0 0 0 0 1 1 0 0 0 0 0 0 1 1 0 0 0 0 0 0 0 0
3 3 3 3 3 1 1 0 0 0 0 0 0 0 0 0 0 0 0 0 0 0 0 0 0 1 1 1 1 1 1 1 1 2 2 1 0 0 0 0 0 0 0
3 3 3 3 3 3 2 1 0 0 0 0 0 0 0 0 0 0 0 0 1 1 1 0 0 0 1 2 2 1 1 1 1 1 1 0 0 0 0 0 0 0 0
3 3 3 3 3 3 2 1 0 0 0 0 0 0 0 0 0 0 0 0 1 2 1 0 0 0 0 1 1 2 2 1 0 0 0 0 0 0 0 0 0 0 0
3 3 3 3 3 3 2 1 0 0 0 0 0 0 0 0 0 0 0 0 1 1 1 0 0 0 0 0 0 1 2 2 1 0 0 0 0 0 0 0 0 0 0
2 3 3 3 3 3 1 0 0 0 0 0 0 0 0 0 0 0 0 0 0 0 0 0 0 0 1 1 0 1 2 2 2 1 0 1 1 1 0 0 0 0 0
1 1 2 2 2 2 1 0 0 0 0 0 0 0 0 0 0 0 0 0 0 0 0 0 0 0 2 2 1 0 1 1 1 1 0 1 2 1 0 0 0 0 0
0 0 1 1 1 1 0 0 0 0 0 0 0 0 0 0 0 0 0 0 0 0 0 0 0 0 1 1 0 0 0 0 1 1 1 1 2 1 1 0 0 0 0
0 0 0 0 0 0 0 0 0 0 0 0 0 0 0 0 0 0 0 0 0 0 0 0 0 0 0 0 0 0 0 0 1 2 2 2 2 2 2 1 0 0 0
1 0 0 0 0 0 0 0 0 0 0 0 0 0 0 0 0 0 0 0 0 0 0 0 0 0 0 0 0 0 0 0 1 1 1 2 2 2 2 2 0 0 0
1 0 0 0 0 0 0 0 0 0 0 0 0 0 0 0 0 0 0 0 0 0 0 0 0 0 0 0 0 0 0 0 0 0 1 2 2 1 1 1 0 0 0
1 0 0 0 0 0 0 0 0 0 0 0 0 0 0 0 0 0 0 0 0 0 0 0 0 0 0 0 0 0 0 0 0 0 0 1 1 0 0 0 0 0 0
0 0 0 0 0 0 0 0 0 0 0 0 0 0 0 0 0 0 0 0 0 0 0 0 0 0 0 0 0 0 0 0 0 0 0 0 0 0 0 0 0 0 0
0 0 0 0 0 0 0 0 0 0 0 0 0 0 0 0 0 0 0 0 0 0 0 0 0 0 0 0 0 0 0 0 0 0 0 0 0 0 0 0 0 0 0
0 0 0 0 0 0 0 0 0 0 0 0 0 0 0 0 0 0 0 0 0 0 0 0 0 0 0 0 0 0 0 0 0 0 0 0 0 0 0 0 0 0 0
0 0 0 0 0 0 0 0 0 0 0 0 0 0 0 0 0 0 0 0 0 0 0 0 0 0 0 0 0 0 0 0 0 0 0 0 0 0 0 0 0 0 0
0 0 0 0 0 0 0 0 0 0 0 0 0 0 0 0 0 0 0 0 0 0 0 0 0 0 0 0 0 0 0 0 0 0 0 0 0 0 0 0 0 0 0
0 0 0 0 0 0 0 0 0 0 0 0 0 0 0 0 0 0 0 0 0 0 0 0 0 0 0 0 0 0 0 0 0 0 0 0 0 0 0 0 0 0 0
0 0 0 0 0 0 0 0 0 0 0 0 0 0 0 0 0 0 0 0 0 0 0 0 0 0 0 0 0 0 0 0 0 0 0 0 0 0 0 0 0 0 0
0 0 0 0 0 0 0 0 0 0 0 0 0 0 0 0 0 0 0 0 0 0 0 0 0 0 0 0 0 0 0 0 0 0 0 0 0 0 0 0 0 0 0
0 0 0 0 0 0 0 0 0 0 0 0 0 0 0 0 0 0 0 0 0 0 0 0 0 0 0 0 0 0 0 0 0 0 0 0 0 0 0 0 0 0 0
0 0 0 0 0 0 0 0 0 0 0 0 0 0 0 0 0 0 0 0 0 0 0 0 0 0 0 0 0 0 0 0 0 0 0 0 0 0 0 0 0 0 0
0 0 0 0 0 0 0 0 0 0 0 0 0 0 0 0 0 0 0 0 0 0 0 0 0 0 0 0 0 0 0 0 0 0 0 0 0 0 0 0 0 0 0
0 0 0 0 0 0 0 0 0 0 0 0 0 0 0 0 0 0 0 0 0 0 0 0 0 0 0 0 0 0 0 0 0 0 0 0 0 0 0 0 0 0 0
0 0 0 0 0 0 0 0 0 0 0 0 0 0 0 0 0 0 0 0 0 0 0 0 0 0 0 0 0 0 0 0 0 0 0 0 0 0 0 0 0 0 0
Wind_Speed
4 5 4 3 3 3 3 3 4 4 4 4 3 3 3 3 2 2 3 5 4 4 4 4 5 5 4 5 5 5 5 5 5 5 5 5 5 5 5 5 5 5 5
4 4 4 4 3 3 3 4 5 5 4 3 4 3 3 3 3 3 2 4 5 4 3 3 4 4 3 4 4 4 4 4 4 5 4 4 4 4 4 4 5 5 5
5 5 4 4 4 4 5 4 5 4 4 4 4 3 3 3 3 3 2 2 3 4 4 3 3 3 3 3 3 3 3 3 4 4 4 3 3 3 3 3 3 4 4
6 5 4 4 4 4 4 4 4 4 4 4 3 3 2 2 3 3 2 2 2 2 4 6 4 3 3 3 2 3 3 2 3 3 3 3 2 1 1 1 2 3 3
6 5 4 4 5 4 4 4 4 4 4 4 4 3 3 2 2 2 2 3 2 2 2 5 5 5 4 3 3 3 3 3 2 2 2 2 2 1 0 1 1 2 2
6 5 5 5 5 4 4 4 5 4 4 4 4 4 3 2 2 2 2 2 2 2 2 2 2 3 5 4 3 3 3 3 2 1 1 1 2 1 1 0 1 1 1
6 6 5 5 5 5 5 6 5 5 3 3 3 3 2 2 2 2 1 1 2 2 2 2 2 2 2 4 4 3 2 2 2 2 0 1 2 2 1 1 1 0 1
6 5 6 5 5 5 5 5 5 4 2 2 2 3 2 2 1 1 1 1 1 2 2 2 3 2 2 1 4 4 3 2 1 2 1 1 1 0 1 1 1 1 1
6 5 6 6 6 5 5 5 5 5 4 2 1 2 2 3 2 2 1 1 1 1 1 2 2 2 2 2 1 3 4 2 1 2 1 1 2 1 1 1 1 1 2
6 5 6 6 5 5 5 5 4 4 5 4 2 1 1 1 2 2 2 1 1 0 1 1 1 1 2 1 2 4 4 3 2 2 2 2 2 2 1 0 1 2 2
5 5 5 5 5 5 5 5 5 4 4 4 3 2 1 1 1 2 2 2 2 1 0 1 0 1 1 1 1 4 4 3 2 2 3 2 2 3 2 1 1 2 2
4 5 5 5 5 5 5 5 5 5 4 4 3 3 2 2 2 2 2 2 2 1 1 1 0 0 1 1 2 4 4 3 3 3 3 3 3 3 3 2 2 2 2
4 6 5 5 5 5 5 5 5 5 5 4 4 3 2 1 1 1 2 2 2 1 1 2 1 1 0 1 1 4 3 3 3 3 3 3 3 3 3 3 3 3 3
5 5 6 5 5 5 5 5 4 4 4 4 4 3 2 1 1 1 1 2 2 2 2 3 2 1 1 1 2 3 2 2 2 3 3 3 3 3 4 3 3 3 3
4 6 6 6 5 5 5 5 4 4 4 4 4 4 3 2 2 1 1 2 3 3 3 2 2 2 1 2 2 3 3 2 3 2 2 2 2 3 3 3 4 4 3
5 6 6 6 6 5 5 5 4 4 4 4 3 4 3 2 2 2 2 2 3 2 2 1 2 1 2 2 2 3 3 3 2 2 3 3 3 3 4 4 4 4 5
5 6 6 6 6 5 5 5 4 5 5 4 4 4 4 3 3 2 2 2 2 2 3 2 2 2 3 3 2 3 3 3 3 3 4 4 4 4 5 5 5 5 5
5 5 5 6 6 6 6 6 5 5 5 5 5 5 4 3 4 3 3 3 3 3 4 4 2 2 3 3 3 3 3 3 3 3 4 5 5 5 6 6 5 6 6
6 6 6 6 6 5 5 6 6 5 5 5 5 5 5 5 5 4 4 4 3 3 4 4 3 2 2 2 3 3 4 3 3 3 4 5 6 6 7 7 6 6 6
6 6 5 5 5 5 5 5 5 6 5 5 5 5 6 6 7 6 5 5 4 4 4 4 3 2 2 2 3 3 3 3 3 3 4 5 5 6 7 7 7 7 7
5 5 5 5 5 4 4 5 5 5 5 5 5 5 5 6 6 5 4 5 5 4 4 4 3 3 3 2 3 3 4 3 4 3 4 4 4 4 4 6 7 7 7
4 4 5 4 4 3 4 5 5 5 5 5 5 5 5 6 6 6 5 5 5 5 5 4 4 5 5 4 3 3 3 4 4 2 4 4 4 5 4 4 5 7 8
4 4 4 4 4 4 5 6 5 4 5 5 5 5 4 4 5 5 5 5 5 5 6 5 6 6 5 4 4 4 5 5 4 2 3 5 4 5 4 4 6 8 8
3 3 3 4 3 3 5 5 5 4 4 4 4 5 4 4 5 5 5 5 5 5 6 5 5 5 5 4 5 5 5 5 4 3 3 5 4 5 4 4 6 8 9
3 3 3 4 4 3 4 5 4 3 3 3 3 3 4 4 4 5 4 5 4 4 3 4 5 5 5 5 4 3 3 3 4 4 3 4 4 4 5 5 4 7 9
3 3 3 3 3 3 4 4 4 3 3 3 2 3 3 4 4 5 5 5 5 4 3 3 4 5 5 4 4 5 4 4 4 4 2 3 3 3 4 3 4 4 5
Wind_Direction
147 142 135 133 134 133 139 132 131 129 123 118 116 120 118 115 109 111 101 78 79 91 109 123 124 119 117 121 114 112 112 114 109 103 96 90 83 74 67 69 71 67 70
147 143 137 136 135 134 129 130 126 121 111 111 111 109 107 103 98 99 99 96 79 72 83 109 116 113 113 121 124 121 120 119 116 106 104 94 83 74 62 66 68 64 67
147 144 140 140 137 134 131 125 122 118 114 108 99 87 81 80 88 87 82 77 89 79 71 76 82 88 94 111 126 127 127 124 122 116 111 105 89 75 60 62 63 68 65
149 145 144 140 139 138 136 133 133 125 121 116 106 92 81 74 73 70 73 70 60 65 76 68 63 60 70 92 113 118 115 109 123 130 126 127 118 105 76 73 69 68 65
153 148 145 141 144 139 138 137 137 132 127 117 101 89 79 71 65 68 76 71 62 57 62 77 70 50 53 69 72 84 85 99 117 127 123 135 137 134 104 74 89 70 60
155 146 141 144 145 142 141 142 134 128 127 122 107 88 72 71 63 56 59 74 67 58 49 51 74 72 61 54 60 68 66 73 91 118 132 164 179 185 235 141 95 74 70
152 146 141 143 150 150 151 152 143 139 136 143 131 118 93 80 72 58 44 61 69 59 49 36 39 54 75 66 49 51 53 51 63 72 148 212 212 219 212 185 132 64 52
156 154 153 151 153 147 149 153 152 152 147 174 168 161 165 161 114 63 63 55 51 56 51 38 36 44 42 39 52 39 26 25 28 46 39 316 245 236 228 226 231 250 279
160 159 163 159 159 157 158 163 167 169 163 168 201 202 190 183 156 152 111 85 65 51 55 48 50 40 33 26 36 45 20 13 348 324 327 305 275 265 253 304 338 316 285
167 166 167 165 164 165 164 170 177 177 173 169 170 303 330 109 179 165 167 160 139 85 56 50 70 56 33 31 30 22 13 1 343 321 309 301 291 284 283 308 347 9 18
169 169 171 169 169 170 171 171 175 179 181 180 176 172 161 172 225 199 186 182 185 187 281 315 10 43 33 17 5 16 8 3 340 321 314 313 317 309 297 299 318 333 347
172 175 174 172 174 173 175 177 180 182 187 189 186 184 187 197 196 208 205 200 208 183 230 262 273 336 11 351 6 4 353 356 353 343 323 322 332 314 299 301 312 322 335
178 182 177 178 176 175 175 176 180 185 190 188 194 201 207 223 202 217 207 202 217 204 214 219 217 252 302 310 340 351 342 351 350 343 339 338 342 337 331 317 310 312 314
183 181 180 180 176 174 173 173 174 178 184 189 196 201 200 202 206 211 215 205 211 214 219 221 203 211 257 289 342 314 304 338 331 328 322 324 340 341 334 320 306 306 308
178 177 178 177 174 172 174 174 177 179 182 190 196 197 199 195 204 210 217 229 224 222 227 217 215 204 251 271 308 282 280 314 297 298 315 317 316 318 318 312 308 303 295
172 172 174 176 175 173 176 178 180 184 185 189 193 193 196 197 196 196 206 234 243 239 234 229 240 248 254 268 289 278 281 298 273 278 292 295 289 291 290 289 291 290 286
171 171 172 175 176 176 180 183 184 184 190 190 192 197 200 198 197 201 204 221 228 225 232 235 233 241 250 258 266 271 276 272 263 263 273 279 278 274 273 274 277 279 279
173 172 171 173 177 181 183 187 187 190 196 196 197 203 206 202 207 209 210 218 230 231 233 238 231 231 249 258 267 269 270 270 269 264 267 270 269 266 266 269 272 274 276
175 174 174 177 181 184 186 191 191 195 201 204 204 207 211 209 214 215 217 221 226 233 235 239 241 243 250 250 262 268 270 266 270 268 264 261 260 262 265 267 269 271 272
176 176 178 182 184 186 189 191 193 198 201 207 210 213 215 216 219 216 217 221 220 224 227 230 237 239 243 249 253 256 263 262 268 273 269 267 262 258 259 263 263 265 266
177 178 179 180 183 184 189 194 198 200 203 205 210 215 219 221 225 221 218 218 214 219 222 226 233 236 235 235 243 250 260 268 267 268 270 263 262 260 257 253 255 258 263
175 179 181 179 182 185 182 192 200 202 203 206 210 215 219 217 216 217 220 223 219 219 222 227 233 237 244 246 247 242 253 262 269 251 266 270 263 265 266 265 269 264 264
178 182 181 184 188 185 180 188 199 208 205 210 214 214 218 216 214 215 213 219 227 234 237 238 240 244 249 243 241 241 245 252 267 276 265 269 264 265 266 266 269 265 265
179 183 186 189 190 187 179 184 190 205 210 214 218 219 219 220 216 215 217 222 230 236 237 241 250 259 260 251 242 251 256 261 272 268 257 269 271 271 275 268 256 259 264
177 183 188 187 190 188 181 185 188 206 210 218 221 225 223 222 212 206 217 227 236 242 238 240 264 278 284 275 257 241 239 246 262 262 249 264 276 283 278 269 264 262 265
177 177 182 189 193 196 181 183 192 204 208 215 223 230 229 226 216 207 220 226 237 247 248 250 258 268 268 261 242 238 241 245 262 264 235 252 273 286 280 268 276 278 269